Regional Weather Roundup
Issued by NWS

Home | Current Version | Previous Version | Graphics & Text | Print | Product List | Glossary Off
Versions: 1 2 3 4 5 6 7 8 9 10 11 12 13 14 15 16 17 18 19 20 21 22 23 24 25 26 27 28 29 30 31 32 33 34 35 36 37 38 39 40 41 42 43 44 45 46 47 48 49 50

000
ASUS43 KDTX 260401
RWRMI
MICHIGAN HOURLY REGIONAL WEATHER ROUNDUP
NATIONAL WEATHER SERVICE DETROIT/PONTIAC MI
1200 AM EDT SUN MAR 26 2017

NOTE: "FAIR" INDICATES FEW OR NO CLOUDS BELOW 12,000 FEET WITH NO
SIGNIFICANT WEATHER AND/OR OBSTRUCTION TO VISIBILITY.

MIZ047>049-052>055-059>063-066>070-074>076-081>083-260500-
SOUTHEAST LOWER MICHIGAN

CITY           SKY/WX    TMP DP  RH WIND       PRES   REMARKS
ADRIAN         MOCLDY    39  36  89 E14       30.12F WCI  31
ALMA           LGT RAIN  38  38  99 NE8       30.17R WCI  32
ANN ARBOR      CLOUDY    40  36  86 E12       30.14S WCI  33
BAD AXE        CLOUDY    36  33  88 E7G16     30.23R WCI  30
CARO           CLOUDY    37  34  90 E7G18     30.19F WCI  31
DETROIT CITY   CLOUDY    40  36  86 E14G20    30.18S WCI  32
DETROIT        CLOUDY    41  36  82 E13G18    30.17S
FLINT          CLOUDY    40  37  89 E10       30.16F WCI  33
GROSSE ILE     CLOUDY    40  36  86 E12       30.15F WCI  32
HILLSDALE      CLOUDY    39  36  87 E14G21    30.07F WCI  31
HOWELL         CLOUDY    40  37  89 E8        30.14R WCI  35

CITY           SKY/WX    TMP DP  RH WIND       PRES   REMARKS
JACKSON        CLOUDY    42  38  85 E12       30.10F
LAMBERTVILLE   CLOUDY    39  35  87 E13G25    30.13F WCI  31
LANSING        CLOUDY    42  39  89 E6        30.14S
LAPEER         CLOUDY    37  36  94 E6        30.17F WCI  33
MASON          CLOUDY    41  39  92 E9        30.12S
MONROE         CLOUDY    39  37  91 E8        30.14F WCI  34
MT. CLEMENS    MOCLDY    39  38  97 E6        30.17R WCI  35
PONTIAC        CLOUDY    38  35  89 E12       30.14F WCI  30
PORT HOPE        N/A     35  33  92 E10       30.22F WCI  27
TRI CITIES     CLOUDY    38  36  92 E15       30.19F WCI  29
MIDLAND        CLOUDY    37  35  94 NE13      30.19F WCI  29
TROY           MOCLDY    40  36  85 E9        30.18F WCI  34
SAGINAW HB     CLOUDY    37  34  87 E10       30.18S WCI  30
$$
MIZ043>046-050>051-056>058-064>065-071>073-077>080-260500-
SOUTHWEST LOWER MICHIGAN

CITY           SKY/WX    TMP DP  RH WIND       PRES   REMARKS
BATTLE CREEK   LGT RAIN  44  41  89 E7        30.10R
BENTON HARBOR  LGT RAIN  48  45  89 E14       30.02S
BIG RAPIDS     FLURRIES  36  33  92 E12G20    30.13F WCI  27
COLDWATER      CLOUDY    44  40  88 E8        30.07S
FREMONT        RAIN      38  37  95 E8G16     30.09S WCI  32
HOLLAND        RAIN      44  42  93 E20       30.05F FOG
GRAND RAPIDS   RAIN      41  39  93 E17       30.08F FOG
IONIA          LGT RAIN  39  38  97 NE13      30.11F WCI  32
KALAMAZOO      LGT RAIN  45  42  89 E7        30.07S FOG
LUDINGTON      DRIZZLE   38  37  98 E9        30.08F WCI  31
MARSHALL       CLOUDY    43  41  93 E9G16     30.07F
MOUNT PLEASANT LGT RAIN  36  35  95 E10       30.17S WCI  28
MUSKEGON       CLOUDY    42  39  89 E14       30.06F
SOUTH HAVEN    LGT RAIN  46  45  96 E15G25    30.02F
$$
MIZ016>042-260500-
NORTHERN LOWER MICHIGAN

CITY           SKY/WX    TMP DP  RH WIND       PRES   REMARKS
ALPENA         CLOUDY    35  29  78 E14       30.28F WCI  26
BEAVER ISLAND  MIX PCPN  32  30  94 E12G25    30.21F WCI  23
BELLAIRE       FLURRIES  34  32  90 E7        30.20F WCI  28
CADILLAC       LGT RAIN  34  33  96 E16G23    30.13R WCI  23
CHARLEVOIX     MIX PCPN  33  31  94 E14       30.23R WCI  23
FRANKFORT      DRIZZLE   37  33  87 E8        30.12F WCI  31
GAYLORD        FRZ RAIN  33  28  81 E9G16     30.20F WCI  25
HARBOR SPRINGS CLOUDY    32  30  94 E18G28    30.21F WCI  20
HOUGHTON LAKE  LGT RAIN  34  32  92 E12       30.21R WCI  25
MANISTEE       LGT RAIN  37  36  96 E12       30.09F WCI  29
OSCODA         MIX PCPN  35  33  92 E10G17    30.26S WCI  28
PELLSTON       MIX PCPN  32  27  81 E13G24    30.24F WCI  22
ROGERS CITY    CLOUDY    33  26  75 E15G21      N/A  WCI  23
TRAVERSE CITY  LGT RAIN  36  33  89 E13       30.15F WCI  27
$$
MIZ007>008-015-260500-
EASTERN UPPER MICHIGAN

CITY           SKY/WX    TMP DP  RH WIND       PRES   REMARKS
KINROSS        CLOUDY    32  13  45 E18G25    30.28F WCI  20
MACKINAC ISLAN MIX PCPN  32  26  77 E16G25    30.25F WCI  21
NEWBERRY       CLOUDY    32  20  60 E13       30.24F WCI  22
S. S. MARIE    CLOUDY    34  12  40 E10G20    30.29F WCI  26
MUNISING         N/A     35  22  58 S14G22    30.21F WCI  26
$$
MIZ004>006-011>014-085-260500-
CENTRAL UPPER MICHIGAN

CITY           SKY/WX    TMP DP  RH WIND       PRES   REMARKS
ESCANABA       MIX PCPN  32  31  96 E13       30.20F FOG     WCI  22
MENOMINEE        N/A    N/A N/A N/A MISG        N/A
SAWYER-GWINN   CLOUDY    32  28  84 SE12      30.19F WCI  23
$$
MIZ001>003-009>011-084-260500-
WESTERN UPPER MICHIGAN

CITY           SKY/WX    TMP DP  RH WIND       PRES   REMARKS
IRON MOUNTAIN  MIX PCPN  32  29  88 E7        30.15F FOG     WCI  26
HOUGHTON       CLOUDY    31  28  89 E12       30.16F WCI  22
COPPER HARBOR    N/A     34  27  75 VRB6      30.21F WCI  29
IRONWOOD       CLOUDY    33  29  85 E8        30.11F WCI  26
$$

ABBREVIATIONS USED IN REMARKS
   TC - TEMPERATURE IN CELSIUS
  WCI - WIND CHILL INDEX
   HX - HEAT INDEX
  VSB - VISIBILITY





USA.gov is the U.S. government's official web portal to all federal, state and local government web resources and services.